DELTA 1 DEB, 42636

Orbit data source: Space-Track

DELTA 1 DEB, 42636 is space debris in SSO originally from a launch on Thu, 12 Jun 1975 UTC launched from the Air Force Western Test Range (AFWTR). Debris objects in space refer to the collection of defunct objects orbiting the Earth. Examples of debris include non-operational satellites, rocket bodies, and fragments generated from explosions, collisions, or faulty payload assembly.

Loading next visibility...
Identifier
42636, 1975-052LV
Orbit
SSO
Country
Flag of USUS
Related business
Manufacturer
Unknown
Mission
Spacecraft
Bus & Motor
Unknown
Mass
Unknown
Launch date (UTC)
1975-06-12 (50 years ago)
Launch vehicle
Unknown
Launch site
Air Force Western Test Range (AFWTR)
Object type
Payload
Rocket body
Debris
Shape & HBR
Unknown
Radar Cross Section
Small (<0.1 m²)

Expand to show TLE details & history
Last TLE update: 21 hours ago

TLE from 21 hours ago
0 DELTA 1 DEB
1 42636U 75052LV  25261.06514300  .00000201  00000-0  55316-3 0  9991
2 42636  99.6891 104.0661 0131428  89.0165  63.4158 13.22078249570008
Epoch: 2025-09-18T01:33Z
TLE epoch observation values (Epoch: 2025-09-18T01:33:48.355Z)
Latitude
25.84201°
Longitude
-91.89842°
Altitude
1,136.395 km
Speed
7.308 km/s
True Right ascension
19h 15m 08s
True Declination
25° 42' 51"
Sunlit
Object was in daylight at epoch
Visualization orbit readout
Latitude
Unknown
Longitude
Unknown
Altitude
Unknown
Speed
Unknown
Apparent Right ascension
Unknown
Apparent Declination
Unknown
Sunlit
N/A
Visualization observer readout
Local Sidereal Time
15:46:55
Azimuth
Unknown
Elevation
Unknown
Doppler factor
Unknown
Orbital elements
Apogee altitude
1,273.388 km
Perigee altitude
1,074.872 km
Semi-major axis
7,552.267 km
Eccentricity
0.01314
Inclination
99.6891°
RAAN
104.0661°
Arg. of periapsis
89.0165°
True anomaly
64.77248°
Mean anomaly
63.4158°
Eccentric anomaly
64.09315°
Mean motion
3.30695 °/min
Orbital period
108.86 mins
BSTAR
0.00055316
Loading maneuver chart data...
Computing Atmospheric mass density...
Loading historical data...
Loading historical data...
Loading historical data...
Loading historical data...
Loading historical data...
Loading historical data...
Loading historical data...

Documentation

Showing up to 5 results
|